Athens, GA

7:09 PM EDT on May 26, 2017 (GMT -0400)
Athens / Epps

Weather History for KAHN - August, 2014

Change the Weather History Date:

Friday, August 1, 2014

  Actual Average Record
Temperature  
Mean Temperature 74 °F 80 °F  
Max Temperature 80 °F 91 °F 102 °F (1921)
Min Temperature 67 °F 70 °F 56 °F (1997)
Cooling Degree Days 9 16  
Month to date cooling degree days 9 16  
Year to date cooling degree days 1146 1118  
Since 1 June cooling degree days 876 878  
Growing Degree Days 23 (Base 50)    
Moisture  
Dew Point 65 °F    
Average Humidity 78    
Maximum Humidity 93    
Minimum Humidity 62    
Precipitation  
Precipitation 0.02 in 0.12 in 1.75 in (1887)
Month to date precipitation 0.02 0.12  
Year to date precipitation 27.62 27.88  
Sea Level Pressure  
Sea Level Pressure 30.07 in    
Wind  
Wind Speed 7 mph (ENE)    
Max Wind Speed 14 mph    
Max Gust Speed 18 mph    
Visibility 9 miles    
Events Rain    
T = Trace of Precipitation, MM = Missing Value Source: NWS Daily Summary

Daily Weather History Graph

Daily Weather History Graph

Search for Another Location

Airport or City:

Trip Planner

Search our weather history database for the weather conditions in past years. The results will help you decide how hot, cold, wet, or windy it might be!

Date:

Astronomy

Aug. 01, 2014 Rise Set
Actual Time 6:44 AM EDT 8:33 PM EDT
Civil Twilight 6:17 AM EDT 9:01 PM EDT
Nautical Twilight 5:44 AM EDT 9:34 PM EDT
Astronomical Twilight 5:09 AM EDT 10:09 PM EDT
Moon 11:50 AM EDT (8/1) 11:36 PM EDT (8/1)
Length of Visible Light 14h 43m
Length of Day
13h 49m
Waxing Crescent, 27% of the Moon is Illuminated
Aug 1
Waxing Crescent
Aug 3
First Quarter
Aug 10
Full
Aug 17
Last Quarter
Aug 25
New

Hourly Weather History & Observations

Time (EDT) Temp. Dew Point Humidity Pressure Visibility Wind Dir Wind Speed Gust Speed Precip Events Conditions
12:51 AM 66.9 °F 64.9 °F 93% 30.08 in 6.0 mi ENE 5.8 mph - 0.01 in Rain Light Rain
1:26 AM 66.2 °F 64.4 °F 94% 30.09 in 6.0 mi NE 5.8 mph - 0.02 in Rain Light Rain
1:51 AM 66.9 °F 64.9 °F 93% 30.06 in 7.0 mi NE 5.8 mph - 0.02 in Rain Light Rain
2:51 AM 66.9 °F 66.0 °F 97% 30.06 in 9.0 mi NE 8.1 mph - 0.01 in   Overcast
3:51 AM 68.0 °F 66.0 °F 93% 30.05 in 10.0 mi NE 5.8 mph - 0.00 in   Overcast
4:16 AM 66.2 °F 64.4 °F 94% 30.06 in 10.0 mi NE 6.9 mph - N/A   Overcast
4:26 AM 66.2 °F 64.4 °F 94% 30.06 in 10.0 mi NNE 4.6 mph - N/A   Overcast
4:51 AM 66.9 °F 64.9 °F 93% 30.04 in 10.0 mi NE 5.8 mph - N/A   Overcast
5:35 AM 66.2 °F 64.4 °F 94% 30.06 in 10.0 mi ENE 6.9 mph - 0.00 in   Overcast
5:51 AM 66.9 °F 64.9 °F 93% 30.05 in 10.0 mi ENE 6.9 mph - 0.00 in   Overcast
6:02 AM 66.2 °F 64.4 °F 94% 30.07 in 10.0 mi East 5.8 mph - N/A   Overcast
6:51 AM 66.9 °F 64.9 °F 93% 30.06 in 10.0 mi NE 5.8 mph - 0.00 in Rain Light Rain
7:38 AM 66.2 °F 64.4 °F 94% 30.08 in 10.0 mi ENE 6.9 mph - 0.00 in   Overcast
7:51 AM 66.2 °F 64.4 °F 94% 30.08 in 10.0 mi NE 6.9 mph - N/A   Overcast
7:58 AM 66.2 °F 64.4 °F 94% 30.08 in 2.5 mi ENE 5.8 mph - N/A   Overcast
8:13 AM 68.0 °F 64.4 °F 88% 30.08 in 10.0 mi ENE 10.4 mph - N/A   Overcast
8:51 AM 68.0 °F 64.9 °F 90% 30.08 in 10.0 mi NE 6.9 mph - N/A   Overcast
9:51 AM 68.0 °F 64.9 °F 90% 30.09 in 10.0 mi NE 9.2 mph - N/A   Overcast
10:33 AM 69.8 °F 64.4 °F 83% 30.09 in 10.0 mi NE 9.2 mph - N/A   Overcast
10:51 AM 69.8 °F 64.4 °F 83% 30.10 in 10.0 mi ENE 8.1 mph - N/A   Overcast
11:51 AM 72.0 °F 66.0 °F 81% 30.09 in 10.0 mi NE 4.6 mph - N/A   Overcast
12:37 PM 73.4 °F 66.2 °F 78% 30.10 in 10.0 mi ENE 8.1 mph - N/A   Overcast
12:51 PM 73.0 °F 64.9 °F 76% 30.09 in 10.0 mi Variable 5.8 mph - N/A   Overcast
1:51 PM 73.9 °F 64.9 °F 73% 30.07 in 8.0 mi ENE 6.9 mph - N/A   Overcast
2:51 PM 78.1 °F 66.0 °F 66% 30.06 in 7.0 mi East 9.2 mph - N/A   Overcast
3:29 PM 78.8 °F 66.2 °F 65% 30.06 in 3.0 mi ENE 9.2 mph 17.3 mph N/A   Haze
3:51 PM 77.0 °F 64.9 °F 66% 30.04 in 7.0 mi NE 8.1 mph 16.1 mph N/A   Mostly Cloudy
4:34 PM 78.8 °F 64.4 °F 61% 30.07 in 10.0 mi ENE 9.2 mph 18.4 mph N/A   Mostly Cloudy
4:41 PM 78.8 °F 64.4 °F 61% 30.06 in 10.0 mi East 8.1 mph - N/A   Scattered Clouds
4:51 PM 78.8 °F 64.4 °F 61% 30.07 in 10.0 mi East 9.2 mph - N/A   Scattered Clouds
5:13 PM 78.8 °F 64.4 °F 61% 30.06 in 8.0 mi East 6.9 mph - N/A   Mostly Cloudy
5:51 PM 79.0 °F 64.9 °F 62% 30.04 in 10.0 mi East 6.9 mph - N/A   Mostly Cloudy
6:51 PM 75.0 °F 64.9 °F 71% 30.04 in 10.0 mi ENE 9.2 mph 16.1 mph N/A   Overcast
7:51 PM 73.0 °F 64.0 °F 73% 30.06 in 10.0 mi ENE 9.2 mph - N/A   Overcast
8:31 PM 71.6 °F 64.4 °F 78% 30.07 in 10.0 mi ENE 6.9 mph - N/A   Scattered Clouds
8:51 PM 70.0 °F 63.0 °F 78% 30.06 in 10.0 mi ENE 5.8 mph - N/A   Clear
9:51 PM 69.1 °F 63.0 °F 81% 30.07 in 10.0 mi NE 3.5 mph - N/A   Clear
10:51 PM 68.0 °F 63.0 °F 84% 30.08 in 10.0 mi ENE 10.4 mph - N/A   Clear
11:34 PM 66.2 °F 62.6 °F 88% 30.10 in 10.0 mi East 6.9 mph - N/A   Mostly Cloudy
11:51 PM 66.2 °F 62.6 °F 88% 30.10 in 10.0 mi ENE 9.2 mph - N/A   Overcast